Location: *
(37.9500°N, 27.3666°E)
Time: 04:09:55
(UTC+00:00)

Cosmos 1605 Rocket - Pass Details

Date: 24 October 2021
Orbit: 945 x 1006 km, 82.9° (Epoch: 03 December)

Event Time Altitude Azimuth Distance (km) Brightness Sun altitude
Rises 16:53:21 0° 192° (SSW) 3,652 7.2 -18.9°
Reaches altitude 10° 16:55:51 10° 195° (SSW) 2,718 6.5 -19.3°
Maximum altitude 17:02:03 68° 278° (W) 1,058 4.3 -20.6°
Drops below altitude 10° 17:08:24 10° 2° (N) 2,773 6.4 -21.8°
Sets 17:10:59 0° 5° (N) 3,732 7.0 -22.3°
